Regional Weather Roundup
Issued by NWS San Angelo, TX

Home | Current Version | Previous Version | Text Only | Print | Product List | Glossary On
Versions: 1 2 3 4 5 6 7 8 9 10 11 12 13 14 15 16 17 18 19 20 21 22 23 24 25 26 27 28 29 30 31 32 33 34 35 36 37 38 39 40 41 42 43 44 45 46 47 48 49 50
000
ASUS44 KSJT 101302
RWRSJT
WEST CENTRAL TEXAS REGIONAL WEATHER ROUNDUP
NATIONAL WEATHER SERVICE SAN ANGELO TX
700 AM CST SAT DEC 10 2016

NOTE: "FAIR" INDICATES FEW OR NO CLOUDS BELOW 12,000 FEET WITH NO
SIGNIFICANT WEATHER AND/OR OBSTRUCTIONS TO VISIBILITY.

TXZ049-054-064>066-071>073-076>078-098-099-113-114-127-128-139-140-
154-155-168>170-101400
...LOCATIONS ACROSS WEST CENTRAL TEXAS...

CITY           SKY/WX    TMP DP  RH WIND       PRES   REMARKS
SAN ANGELO     CLOUDY    32  26  78 S7        30.32S WCI  26
ABILENE        CLOUDY    33  25  72 S10       30.32S WCI  25
DYESS AFB      CLOUDY    33  25  70 S8        30.30S WCI  26
JUNCTION       CLOUDY    36  27  69 CALM      30.36S
SWEETWATER     CLOUDY    34  29  83 S15       30.28S WCI  24
BROWNWOOD      NOT AVBL
COLEMAN        CLOUDY    34  26  72 S10       30.36S WCI  26
SONORA         CLOUDY    37  27  65 S6        30.38S WCI  33
OZONA          FAIR      32  27  80 MISG      30.35S
BRADY          NOT AVBL
$$

TEXAS PANHANDLE/OKLAHOMA PANHANDLE

CITY           SKY/WX    TMP DP  RH WIND       PRES   REMARKS
AMARILLO       CLOUDY    24  24 100 S10       30.13S WCI  14
BORGER         CLOUDY    26  23  88 S12       30.13F WCI  16
CANADIAN       CLOUDY    25  21  83 SW8       30.19F WCI  16
DALHART        CLOUDY    24  22  91 S9        30.08F WCI  14
DUMAS          CLOUDY    23  21  93 S3        30.09R
GUYMON         NOT AVBL
HEREFORD       CLOUDY    31  30  94 SW10      30.13F WCI  22
PAMPA          CLOUDY    24  22  91 S14       30.13F WCI  12
PERRYTON       CLOUDY    24  21  87 S15       30.11F WCI  11
$$

SOUTHERN PANHANDLE/SOUTH PLAINS/ROLLING PLAINS

CITY           SKY/WX    TMP DP  RH WIND       PRES   REMARKS
LUBBOCK        CLOUDY    29  27  92 SW9       30.19F WCI  20
SNYDER         CLOUDY    30  28  90 S10       30.26S WCI  21
CHILDRESS      CLOUDY    25  21  85 S9        30.26S WCI  15
SEMINOLE       CLOUDY    26  26 100 CALM      30.22F
$$

PERMIAN BASIN

CITY           SKY/WX    TMP DP  RH WIND       PRES   REMARKS
MIDLAND        CLOUDY    32  29  88 S8        30.24S WCI  25
ODESSA         CLOUDY    30  27  88 S6        30.23F WCI  24
WINK           CLOUDY    30  29  96 SE7       30.23S WCI  23
$$

FAR WEST/SOUTHWEST MOUNTAINS/TRANS PECOS

CITY           SKY/WX    TMP DP  RH WIND       PRES   REMARKS
ALPINE         CLOUDY    41  37  84 CALM      30.31R
DRYDEN           N/A     33  32  96 CALM      30.32R
EL PASO        PTCLDY    32  25  75 N7        30.27S WCI  26
FORT STOCKTON  CLOUDY    32  32 100 S8        30.24S WCI  25
GUADALUPE PASS NOT AVBL
MARFA          FOG       25  24  96 N3        30.29F VSB 1/2
PECOS          CLOUDY    28  28  96 CALM      30.25S
$$

DALLAS/FORT WORTH METROPLEX

CITY           SKY/WX    TMP DP  RH WIND       PRES   REMARKS
DFW AIRPORT    CLOUDY    38  24  57 SE8       30.45R WCI  32
FTW MEACHAM    MOCLDY    37  24  59 SE8       30.44S WCI  31
DAL-EXECUTIVE  CLOUDY    37  27  67 SE8       30.45R WCI  31
GRAND PRAIRIE  NOT AVBL
ADDISON        CLOUDY    37  25  60 SE12      30.46S WCI  30
MESQUITE       CLOUDY    36  27  69 SE7       30.47F WCI  30
LANCASTER      CLOUDY    37  25  63 SE6       30.48S WCI  32
$$

NORTH CENTRAL TEXAS

CITY           SKY/WX    TMP DP  RH WIND       PRES   REMARKS
SHRMAN/DENISON CLOUDY    38  27  62 SE7       30.45F WCI  33
GAINESVILLE    MOCLDY    33  24  68 SE6       30.45S WCI  28
BRIDGEPORT     CLOUDY    35  26  70 SE3       30.44F
DENTON         CLOUDY    36  25  64 SE7       30.44S WCI  30
WAXAHACHIE     CLOUDY    36  28  71 SE5       30.47R WCI  32
GRANBURY       CLOUDY    35  29  78 E8        30.44S WCI  29
$$

WESTERN NORTH TEXAS

CITY           SKY/WX    TMP DP  RH WIND       PRES   REMARKS
WICHITA FALLS  CLEAR     34  22  61 SE12      30.35F WCI  25
VERNON         CLOUDY    32  22  65 S13       30.33R WCI  23
BRECKENRIDGE   CLOUDY    33  25  71 S7        30.36S WCI  27
COMANCHE       CLOUDY    33  27  80 SE3       30.39S
$$

CENTRAL AND SOUTH CENTRAL TEXAS

CITY           SKY/WX    TMP DP  RH WIND       PRES   REMARKS
AUSTIN/BERGSTM CLOUDY    40  32  73 CALM      30.45S
WACO           CLOUDY    39  27  62 SE8       30.46R WCI  33
HILLSBORO      CLOUDY    37  27  68 SE7       30.45F WCI  31
TEMPLE         CLOUDY    39  27  62 SE6       30.46S WCI  35
KILLEEN-GRAY   CLOUDY    37  29  72 SE7       30.42S WCI  32
FORT HOOD      CLOUDY    39  27  62 SE7       30.41S WCI  34
GEORGETOWN     CLOUDY    39  27  60 SE5       30.45S WCI  36
LAGO VISTA     CLOUDY    40  29  65 SE3       30.42F
SAN MARCOS     CLOUDY    39  32  75 NE5       30.45S WCI  36
NEW BRAUNFELS  CLOUDY    42  29  59 NE5       30.43R WCI  39
RANDOLPH AFB   CLOUDY    41  29  60 NE5       30.43R WCI  38
SAN ANTONIO    CLOUDY    42  28  57 CALM      30.44R
STINSON        CLOUDY    45  27  49 CALM      30.43R
PLEASANTON     NOT AVBL
LA GRANGE      CLOUDY    42  33  73 E3        30.44S
GIDDINGS       CLOUDY    38  31  74 E3        30.49S
$$

EAST TEXAS

CITY           SKY/WX    TMP DP  RH WIND       PRES   REMARKS
PARIS          CLOUDY    37  25  60 SE9       30.49F WCI  31
CLARKSVILLE    NOT AVBL
TYLER          CLOUDY    37  23  56 SE9       30.48R WCI  30
LONGVIEW       MOCLDY    34  26  72 E8        30.51F WCI  27
PALESTINE      CLOUDY    34  28  78 E6        30.50R WCI  29
NACOGDOCHES    CLEAR     30  27  86 E8        30.50F WCI  23
$$

TEXAS HILL COUNTRY AND EDWARDS PLATEAU

CITY           SKY/WX    TMP DP  RH WIND       PRES   REMARKS
LLANO          CLOUDY   N/A N/A N/A E3        30.44F
HORSESHOE BAY  CLOUDY    39  29  66 S3        30.42F
KERRVILLE      CLOUDY    36  29  77 S3        30.39F
FREDERICKSBRG  CLOUDY    37  22  56 SE3       30.39F
ROCKSPRINGS    CLOUDY    37  28  70 S9        30.36S WCI  31
HONDO          CLOUDY    43  32  65 NE3       30.43R
UVALDE         CLOUDY    41  32  70 CALM      30.43S
DEL RIO        CLOUDY    43  34  70 SE10      30.38F WCI  37
$$

SOUTHEAST TEXAS

CITY           SKY/WX    TMP DP  RH WIND       PRES   REMARKS
COLLEGE STN    MOCLDY    38  29  70 SE8       30.48R WCI  32
CALDWELL       NOT AVBL
CROCKETT       NOT AVBL
BRENHAM        CLOUDY    40  32  74 E3        30.48S
HUNTSVILLE     CLOUDY    37  27  67 SE7       30.48F WCI  32
CONROE         CLOUDY    35  28  75 CALM      30.51S
HOUSTON BUSH   MOCLDY    39  28  64 NE8       30.50S WCI  33
HOUSTON HOBBY  CLOUDY    42  32  67 NE7       30.49S WCI  38
PERLAND        CLOUDY    43  33  68 NE7       30.50S WCI  39
WHARTON        CLOUDY    41  32  70 NE5       30.47F WCI  38
$$

THE UPPER TEXAS COAST

CITY           SKY/WX    TMP DP  RH WIND       PRES   REMARKS
ORANGE         SUNNY     33  27  79 NE6       30.54S WCI  27
PORT ARTHUR    CLEAR     35  29  78 NE7       30.51R WCI  29
GALVESTON      CLOUDY    45  38  76 N15       30.48S WCI  38
ANGLETON       PTCLDY    43  35  73 NE8       30.47S WCI  38
BAY CITY       CLOUDY    45  35  68 NE8       30.46S
$$

TEXAS COASTAL BEND, RIO GRANDE PLAINS DEEP SOUTH TEXAS

CITY           SKY/WX    TMP DP  RH WIND       PRES   REMARKS
VICTORIA       CLOUDY    46  35  65 NE7       30.44S
BEEVILLE       CLOUDY    47  34  62 N5        30.42S
ROCKPORT       CLOUDY    49  37  63 NE8       30.41S
PORT ARANSAS   CLOUDY    49  41  74 N12       30.40R
PORT LAVACA    CLOUDY    46  38  75 NE12      30.44S
CORPUS CHRISTI CLOUDY    47  37  68 N10       30.41R
KINGSVILLE NAS CLOUDY    47  37  68 N10       30.41S
COTULLA        CLOUDY    47  31  53 E5        30.44R
LAREDO         CLOUDY    46  31  55 CALM      30.43S
BROWNSVILLE    CLOUDY    48  37  65 NW10      30.37R
PORT ISABEL    CLOUDY    48  39  71 NW14      30.36S
HEBBRONVILLE   CLOUDY    44  31  60 N5        30.41F
MCALLEN        CLOUDY    49  35  58 NW7       30.42R
WESLACO        CLOUDY    47  33  59 NW8       30.39S
FALFURRIAS     CLOUDY    48  34  59 N5        30.42R
EDINBURG       CLOUDY    49  32  51 NW7       30.41S
$$



USA.gov is the U.S. government's official web portal to all federal, state and local government web resources and services.